GFSFLT1_700_rhum_132.txt.gz
RH
32 33 29 26 38 32 13 7 10 23 44 44 60 64 86 66 34 21 20 22 22 23 23 25 26 30 28 28 29 29 27 27
35 36 36 29 13 24 40 23 5 10 33 47 45 68 68 71 42 29 21 21 23 24 24 28 30 29 30 33 34 34 31 30
40 38 34 35 37 12 13 18 18 18 36 49 46 54 69 74 65 38 23 22 23 25 27 27 30 34 33 30 33 35 39 38
43 43 44 40 46 39 31 25 15 13 34 51 57 39 60 73 77 46 33 25 23 25 28 29 30 34 36 36 37 36 40 44
51 56 54 53 56 50 46 37 20 13 10 47 67 77 97 79 72 58 40 29 25 26 29 32 33 35 36 38 39 42 45 50
61 64 67 67 66 66 53 40 13 28 8 13 54 90 71 98 79 76 50 34 27 27 30 34 42 50 51 51 56 57 58 59
70 68 73 73 80 96 95 65 36 20 7 5 28 80 96 94 98 97 72 51 34 31 34 48 74 79 77 79 69 69 72 81
83 78 76 78 78 98 98 90 36 46 22 10 10 51 99 98 97 69 99 75 60 76 59 74 83 80 80 69 63 57 61 68
90 85 82 77 73 77 91 100 95 98 99 45 32 31 83 93 99 95 72 98 90 50 99 82 73 65 64 57 42 40 41 49
94 90 87 88 84 90 92 100 100 99 100 96 73 36 42 99 99 100 100 87 92 87 99 77 71 58 42 40 44 44 51 47
96 93 88 92 89 96 98 99 97 100 100 100 99 56 46 96 88 98 97 97 98 100 100 76 58 48 52 47 47 48 56 55
96 96 96 98 95 96 97 97 98 98 99 100 100 75 91 98 98 90 100 99 90 90 79 70 67 62 51 47 48 48 54 58
95 96 98 97 95 95 97 98 100 98 99 100 99 98 100 99 98 82 95 86 100 100 96 87 67 67 62 57 57 56 61 63
96 96 96 96 96 96 96 97 99 100 99 99 98 100 92 95 99 100 98 93 86 87 82 83 77 74 69 68 67 64 62 64
96 96 94 95 96 96 97 97 97 100 100 100 99 99 100 97 94 96 97 92 89 91 84 76 75 74 73 70 69 67 68 61
94 94 93 92 94 95 94 94 97 97 98 99 98 98 99 100 91 88 93 85 83 72 82 85 82 80 84 83 74 62 58 92
91 84 89 94 93 92 87 66 45 47 56 81 96 95 98 99 97 96 94 89 87 95 100 97 81 91 97 93 99 93 100 90
53 50 47 42 39 37 34 33 36 35 36 35 33 34 30 29 29 30 30 36 33 35 48 54 54 51 56 69 88 83 90 99
41 32 23 18 15 15 14 14 15 15 16 15 14 15 16 15 15 17 17 18 17 16 17 17 17 18 20 22 24 26 28 42

GFSFLT1_700_rhum_138.txt.gz
RH
24 24 26 27 21 21 23 26 19 15 13 8 4 22 39 42 55 74 87 84 97 87 57 21 19 20 22 26 23 20 26 24
27 27 29 22 22 25 25 24 24 22 20 18 14 5 14 37 44 66 77 95 87 96 77 43 21 20 21 24 24 25 24 23
29 31 24 22 23 26 25 23 22 21 24 25 22 16 8 9 37 46 80 100 100 88 84 75 36 22 22 24 24 26 25 26
32 30 23 23 27 29 30 28 28 29 34 31 29 25 18 12 9 39 47 89 100 87 99 92 47 31 32 24 25 26 28 28
32 28 26 32 34 35 37 36 38 35 37 37 32 29 26 21 20 11 37 48 99 100 99 76 81 58 26 26 26 26 30 32
32 32 35 40 39 40 44 45 43 30 17 11 11 15 24 27 27 23 11 37 75 99 99 92 84 73 43 37 26 27 30 33
36 41 43 43 46 49 50 53 50 41 35 28 26 12 9 16 28 32 23 12 40 93 100 100 99 97 78 41 34 27 31 34
41 43 45 50 54 58 61 61 61 60 60 60 54 26 30 40 34 30 33 18 23 48 100 100 97 86 99 80 47 35 36 36
46 48 56 62 68 72 76 75 69 55 55 72 83 76 44 27 26 18 12 9 25 37 67 100 100 100 92 88 84 54 54 50
49 63 70 76 76 85 91 91 83 92 83 81 95 100 100 96 76 20 12 12 98 54 48 96 100 100 95 86 100 85 64 62
61 75 80 87 88 91 94 100 100 100 100 98 100 99 98 100 85 80 72 78 72 71 66 74 97 79 81 84 89 91 86 85
74 88 90 90 92 92 96 100 100 100 93 94 100 100 100 91 93 98 98 98 88 66 70 97 95 98 99 93 100 100 88 74
87 93 92 89 95 95 94 100 99 100 96 97 98 97 100 97 99 99 99 99 64 61 96 94 97 97 97 93 96 98 97 92
90 92 93 81 82 75 89 97 97 97 96 96 94 98 98 98 99 99 100 87 66 58 92 100 100 100 98 88 100 100 100 98
82 80 85 81 75 64 32 35 58 89 95 95 97 97 98 99 98 100 100 97 90 97 100 99 100 99 95 100 100 100 100 100
54 48 40 34 35 29 54 28 17 35 51 80 75 65 95 96 98 99 99 99 100 100 100 100 99 98 97 99 98 98 99 96
46 32 20 14 12 11 9 8 7 7 8 11 27 33 18 56 46 35 31 39 38 47 58 70 59 66 72 70 76 76 72 66
32 17 14 11 10 8 7 6 5 5 5 5 5 5 5 6 6 6 6 7 8 10 12 13 13 12 12 12 11 10 10 10
19 15 13 10 8 7 6 6 6 6 6 6 7 7 7 7 7 6 6 6 5 4 4 4 4 4 4 4 4 4 4 4

GFSFLT1_700_rhum_141.txt.gz
RH
21 21 22 23 23 26 22 21 16 15 15 10 9 10 13 12 7 26 40 41 86 100 96 88 61 84 61 35 24 29 31 23
22 23 25 26 26 29 24 21 15 15 15 14 13 12 10 11 14 12 16 38 42 96 99 81 82 62 82 53 31 32 33 28
26 28 30 29 30 26 24 17 17 17 16 16 17 15 14 15 16 17 13 13 37 40 94 99 93 87 67 76 43 33 37 33
29 32 32 34 30 24 19 20 22 22 23 23 23 20 19 17 18 21 22 11 11 36 43 93 99 100 95 82 57 49 34 36
40 40 39 32 23 21 26 30 30 30 30 29 29 25 18 17 15 16 24 22 9 10 35 42 93 99 98 79 86 67 49 44
46 40 33 27 30 32 36 40 40 37 37 36 30 22 15 13 12 12 15 26 23 13 16 36 40 88 95 85 68 73 61 43
42 34 33 35 39 43 45 48 48 47 45 48 49 46 38 33 25 26 26 15 20 25 21 18 35 48 95 94 90 87 84 46
38 36 36 40 45 50 50 54 57 54 56 54 53 54 53 50 38 38 21 26 27 27 30 17 20 37 52 98 100 100 100 80
42 42 44 51 59 58 63 66 64 63 56 54 52 59 63 73 78 52 28 28 28 31 40 30 17 36 42 92 100 98 86 100
48 51 55 66 67 67 75 76 73 76 72 71 66 82 91 91 84 67 37 38 52 99 56 27 25 27 32 55 100 81 91 87
56 60 72 80 75 82 88 86 85 84 91 87 96 87 95 98 98 61 84 98 78 63 22 51 52 43 33 62 82 94 73 81
64 72 81 82 75 79 91 93 91 92 97 98 99 89 99 100 96 97 88 99 100 100 87 70 57 42 58 69 100 98 96 65
75 80 81 79 54 31 46 85 98 95 98 98 100 100 100 100 98 93 98 98 99 100 99 83 71 88 73 82 91 100 100 87
75 79 79 73 77 51 23 40 60 79 94 97 99 99 99 97 96 98 98 99 99 99 98 98 96 93 86 82 86 86 100 98
63 55 43 38 22 36 32 22 23 45 28 51 90 94 93 94 97 98 98 99 100 97 99 100 100 100 100 98 92 95 99 99
49 42 27 16 12 10 8 7 6 6 6 6 14 49 36 72 77 82 89 99 99 98 99 99 100 100 99 99 99 99 99 100
42 31 17 13 9 7 6 6 5 6 6 6 6 6 6 5 11 26 42 18 15 30 51 68 85 83 74 67 68 48 47 44
39 20 15 11 8 6 6 6 6 7 8 8 9 9 9 8 7 6 6 5 5 5 5 4 4 5 4 4 4 4 4 4
30 17 13 9 7 6 6 7 8 9 11 11 10 11 10 11 10 9 8 8 7 7 7 6 6 5 6 6 6 6 6 6

GFSFLT1_700_rhum_147.txt.gz
RH
17 17 18 20 21 20 18 18 19 18 20 20 18 14 10 10 13 13 11 8 8 9 11 12 10 7 16 52 80 96 84 77
18 19 21 23 24 19 22 25 25 24 22 21 16 12 11 13 14 16 16 14 9 8 8 11 14 12 7 13 78 94 92 86
21 21 25 27 26 31 31 32 28 24 22 18 14 14 16 16 16 18 18 19 17 14 11 9 11 13 12 10 13 45 81 94
25 29 30 29 35 38 38 33 28 26 22 21 20 19 19 20 22 22 25 25 23 20 19 18 15 15 13 11 11 12 26 69
30 30 32 42 46 42 37 31 27 27 26 24 22 23 24 27 28 24 25 28 23 21 14 13 18 18 20 17 16 15 18 54
36 44 51 49 45 40 33 33 33 31 30 30 33 41 40 35 30 29 28 27 26 31 26 23 16 18 16 16 22 22 16 27
52 55 52 49 44 39 40 38 36 37 37 42 47 47 41 37 38 39 41 40 39 39 37 33 30 20 14 12 22 28 20 18
55 54 54 45 45 44 42 43 43 43 45 49 52 48 39 37 41 49 52 47 49 56 54 54 50 40 33 17 20 29 24 16
57 58 45 47 49 47 48 51 53 54 54 56 55 52 46 46 59 56 51 51 50 50 56 42 45 44 30 28 20 29 23 13
62 52 52 52 51 53 57 64 66 68 69 66 61 64 62 63 54 40 35 38 41 31 40 46 26 27 33 75 23 32 25 37
64 54 57 56 57 57 60 46 29 28 66 63 76 76 69 68 66 65 71 76 58 73 40 62 81 97 64 84 98 40 23 21
65 60 61 61 54 50 22 12 8 7 42 49 29 68 50 78 72 75 79 74 78 99 94 72 85 81 100 100 76 69 84 40
67 64 64 62 48 25 15 8 6 6 6 27 16 42 28 12 64 97 98 85 90 84 89 88 76 94 99 92 74 78 94 77
69 70 66 60 30 14 10 7 6 6 6 7 12 8 11 7 7 15 58 72 94 100 85 72 80 98 99 99 99 100 81 66
77 79 64 42 21 12 9 7 6 7 8 9 8 9 9 10 10 9 8 12 13 33 85 95 96 98 98 98 99 99 100 100
82 81 56 37 14 9 8 6 7 8 10 10 10 10 12 12 12 12 11 10 10 9 8 18 54 79 66 61 94 97 97 98
86 88 48 19 12 8 7 7 8 9 11 12 12 13 13 13 13 13 14 12 12 12 11 11 9 10 10 9 11 20 20 7
93 63 39 16 11 8 7 7 9 11 12 14 14 14 15 15 15 16 16 15 15 14 14 13 12 11 11 10 10 9 9 8
87 66 28 15 10 8 7 8 12 14 16 16 16 17 18 18 19 18 18 19 19 17 16 16 15 13 13 12 12 11 11 10